Preview of NWS' New Version of Forecast
This preview is not operational and should not be used for support decisions.

Regional Weather Roundup (RWR)

Issued by Philadelphia/Mt Holly (PHI)

                            
000
ASUS41 KPHI 151612
RWRPHI

REGIONAL WEATHER ROUNDUP
NATIONAL WEATHER SERVICE MOUNT HOLLY NJ
1200 PM EDT SAT JUN 15 2019

NOTE:  "FAIR" INDICATES FEW OR NO CLOUDS BELOW 12,000 FEET WITH NO
SIGNIFICANT WEATHER AND/OR OBSTRUCTIONS TO VISIBILITY.

 * = STATION DOES NOT REPORT PRECIPITATION (E.G. RAIN, SNOW, ETC.) 
        OR FOG.

NJZ015>026-151700-
SOUTHERN NEW JERSEY
  
CITY           SKY/WX    TMP DP  RH WIND       PRES   REMARKS
POMONA         FAIR      80  53  39 SW16G24   30.13F                  
WILDWOOD*      FAIR      78  58  49 SW13      30.15F                  
MILLVILLE      FAIR      77  56  48 VRB7      30.13F                  
WRIGHTSTOWN    FAIR      79  56  45 W15G24    30.08F                  
MOUNT HOLLY    FAIR      78  57  48 SW9       30.11F                  
TRENTON        FAIR      77  56  48 SW15      30.09F                  

$$
NJZ001>014-151700-
NORTHERN NEW JERSEY
  
CITY           SKY/WX    TMP DP  RH WIND       PRES   REMARKS
SUSSEX         FAIR      75  53  46 VRB6      30.07F                  
ANDOVER*         N/A     77  50  38 SW12G17   30.08F                  
MORRISTOWN     PTSUNNY   79  54  41 SW15G21   30.08F                  
NEWARK         PTSUNNY   81  50  33 SW16      30.08F                  
TETERBORO      FAIR      80  48  32 SW15G23   30.07F                  
CALDWELL       FAIR      81  50  33 SW8       30.08F                  
SOMERVILLE     FAIR      78  55  44 VRB6G18   30.07F                  
ALLAIRE*       FAIR      78  54  43 S13       30.12F                  
TOMS RIVER*    FAIR      81  55  40 SW18      30.12F                  

$$
PAZ043-044-047-054-055-060>062-066>071-151700-
EASTERN PENNSYLVANIA
  
CITY           SKY/WX    TMP DP  RH WIND       PRES   REMARKS
PHILADELPHIA   PTSUNNY   74  54  49 SW16      30.12F                  
NORTH PHILA    FAIR      79  56  45 SW15G22   30.12F                  
BLUE BELL*     FAIR      76  56  49 S13       30.11F                  
DOYLESTOWN     FAIR      78  54  43 S10G17    30.10F                  
QUAKERTOWN*    SUNNY     75  57  53 SW9       30.10                   
PERKASIE*      FAIR      75  55  50 SW8       30.12S                  
POTTSTOWN      FAIR      75  54  47 SW10G16   30.12F                  
LANCASTER      FAIR      79  56  45 SW12      30.09F                  
COATESVILLE    FAIR      73  55  53 S8        30.14S                  
WEST CHESTER   FAIR      75  54  46 SW8       30.12S                  
READING        FAIR      75  56  51 SW7       30.08F                  
ALLENTOWN      FAIR      78  52  40 SW14      30.09S                  
QN CITY/ALNTWN FAIR     N/A N/A N/A W8G21     30.11R                  
MOUNT POCONO   FAIR      71  45  39 SW12      30.10F                  
HAZLETON       FAIR      70  46  43 S5        30.12F                  
LEHIGHTON      FAIR      77  50  38 W7        30.08F                  
WILKES BARRE   FAIR      73  51  46 W7        30.06F                  

$$
DEZALL-MDZ008-012-015-019-020-151700-
DELAWARE AND EASTERN MARYLAND
  
CITY           SKY/WX    TMP DP  RH WIND       PRES   REMARKS
WILMINGTON     FAIR      76  58  53 SW12      30.13F                  
DOVER          CLOUDY    76  54  45 S15G25    30.13F                  
CHESWOLD         N/A     77  54  44 SW9G20    30.13F                  
GEORGETOWN     FAIR      79  53  40 SW18      30.16F                  
EASTON         MOSUNNY   81  54  39 S18G24    30.18F                  
PATUXENT       FAIR      79  54  41 S13       30.16S                  
OCEAN CITY     FAIR      77  59  53 S9G17     30.19F                  
WALLOPS ISLAND NOT AVBL                                               
CAMBRIDGE      SUNNY     77  54  44 SW8G17    30.16F                  
SALISBURY      FAIR      80  51  36 SW16G24   30.16F                  

$$
PAZ001-021-NYZ056-072-MDZ011-DCZ001-151700-
OTHER NEARBY LOCATIONS
  
CITY           SKY/WX    TMP DP  RH WIND       PRES   REMARKS
HARRISBURG     CLOUDY    74  56  53 SW6       30.08F                  
STATE COLLEGE  PTSUNNY   68  50  52 SW12      30.07F                  
WILLIAMSPORT   FAIR      71  53  52 SE9       30.03F                  
BINGHAMTON     FAIR      70  48  45 SW14G24   30.03S                  
NEW YORK CITY  FAIR      76  53  44 MISG      30.11F                  
BALTIMORE      PTSUNNY   77  56  48 SW13G20   30.12F                  
WASHINGTON DC  PTSUNNY   78  56  46 SW12      30.13F                  

$$